Location: Unspecified
(43.4680°N, 87.1740°E)
Time: 20:18:09
(UTC+00:00)

NOSS 0 Rocket - Pass Details

Date: 30 July 2021
Orbit: 936 x 954 km, 70.0° (Epoch: 22 September)

Event Time Altitude Azimuth Distance (km) Brightness Sun altitude
Rises 18:11:11 0° 330° (NNW) 3,635 7.9 -28.2°
Reaches altitude 10° 18:13:46 10° 326° (NNW) 2,684 7.0 -28.2°
Enters shadow 18:19:42 58° 256° (WSW) 1,103 4.1 -28.2°
